Location: Recife
(8.0585°S, 34.8848°W)
Time: 14:29:53
(UTC-03:00)

Tiros 1 despin weight - Pass Details

Date: 18 April 2026
Orbit: 555 x 591 km, 48.2° (Epoch: 14 May)

Event Time Altitude Azimuth Distance (km) Brightness Sun altitude
Rises 09:53:53 0° 188° (S) 2,742 ? 61.6°
Reaches altitude 10° 09:57:51 10° 151° (SSE) 1,837 ? 62.3°
Maximum altitude 09:59:01 11° 135° (SE) 1,773 ? 62.5°
Drops below altitude 10° 10:00:10 10° 118° (ESE) 1,833 ? 62.7°
Sets 10:04:06 0° 81° (E) 2,721 ? 63.4°
